Dewpoint
25 24 24 25 24 19 19 15 19 15 12 12 12 10 8 7 8 10 11 11 12 15 22 36 39 41 43 46 48 50 51 51 51 52 53 56 58 59 60 61 61 62 62 61 62 63 63 63 63 63 63 63 64 65 66 66 66 66 66 66 65 66 66 66 66 66 66 65 65 65 65 65 65 65 66 66 66 67 66 67 66 66 67 66 66 66
25 26 26 23 19 16 18 23 26 16 14 9 9 9 9 8 5 9 10 14 16 24 33 38 40 42 44 47 48 49 51 50 51 51 52 53 55 58 59 60 60 60 60 61 61 62 63 63 63 63 63 63 63 63 64 65 65 65 65 66 66 66 66 66 66 66 66 65 65 65 65 66 66 65 65 65 66 67 66 66 66 66 66 66 66 66
27 25 25 22 21 25 25 26 22 22 19 16 10 12 9 9 10 12 15 18 17 32 35 39 41 43 44 46 48 49 50 51 52 52 52 53 54 55 57 58 60 60 60 60 61 62 62 63 63 63 63 63 64 64 64 65 65 65 65 65 65 65 65 65 66 66 64 65 66 66 66 66 66 67 67 66 66 66 67 67 66 66 66 66 66 66
26 25 24 21 23 24 24 23 25 26 27 19 14 12 9 11 8 8 17 20 19 26 36 41 40 42 44 46 47 49 49 50 51 51 52 53 54 54 54 55 55 57 58 59 60 61 61 62 63 63 62 63 64 64 64 64 64 64 65 65 65 65 65 65 66 65 65 64 65 66 66 66 66 66 66 66 66 66 66 66 66 66 66 66 66 65
22 24 23 21 21 19 21 24 22 18 14 23 17 10 8 10 8 10 13 21 26 34 40 38 37 38 41 44 45 47 48 48 49 50 51 53 54 55 55 56 56 56 57 58 60 61 61 61 62 62 63 63 63 63 63 63 63 64 64 64 65 65 65 65 65 65 66 66 66 66 66 66 66 66 65 64 65 65 65 65 65 65 65 66 66 65
21 22 21 19 18 18 20 18 20 18 14 16 23 13 9 10 9 11 19 20 30 32 27 12 22 31 39 43 45 46 47 47 48 49 50 52 54 54 55 56 57 58 58 57 58 60 61 61 61 62 62 63 62 63 63 63 63 63 64 64 64 65 65 65 65 65 65 65 64 64 63 63 63 62 63 63 63 64 64 64 66 65 64 65 66 65
21 23 21 18 17 17 15 13 16 17 15 16 13 15 12 10 13 13 16 16 21 22 21 22 22 28 36 40 44 46 46 46 48 49 50 52 53 54 55 56 57 58 59 58 58 59 60 61 61 61 61 61 62 62 62 62 62 62 62 63 63 64 64 64 65 66 66 65 65 65 64 63 62 63 64 65 66 65 65 65 64 65 65 64 65 65
22 21 21 20 18 17 17 15 18 15 13 11 15 15 12 11 11 12 14 16 17 24 20 23 29 27 32 38 43 46 45 46 46 49 51 51 53 54 55 56 57 57 58 59 59 59 60 59 59 59 60 60 60 61 62 62 62 62 62 63 63 64 64 64 65 65 65 65 65 65 65 64 64 63 63 65 65 66 65 64 64 65 65 64 65 65
27 21 22 21 20 17 16 16 18 15 12 11 18 13 11 9 10 16 15 18 22 18 12 19 20 29 32 37 43 45 43 45 46 47 50 51 52 54 55 56 56 57 58 58 58 58 58 59 59 59 59 60 60 61 62 62 62 63 63 63 63 63 64 65 65 65 65 65 65 64 64 64 64 65 64 65 65 65 64 64 65 65 65 65 65 65
23 21 20 19 18 18 18 17 17 13 11 11 20 19 20 20 20 17 18 14 21 18 13 17 22 22 31 38 39 43 43 45 47 49 51 53 54 54 55 55 56 56 57 57 57 57 57 58 58 59 59 59 60 60 61 62 62 62 63 63 63 63 64 64 64 65 64 64 64 64 64 63 64 65 65 65 65 64 64 63 63 63 64 65 65 65
21 32 25 20 19 19 18 17 16 12 12 17 17 16 16 16 19 23 23 19 19 11 17 21 28 24 25 36 42 44 44 46 48 50 52 51 52 52 53 53 54 55 56 56 56 56 57 57 58 58 58 59 60 61 61 61 61 62 62 62 62 63 64 64 64 64 64 64 64 64 63 63 63 64 64 64 62 61 63 63 62 63 64 64 65 65
20 23 21 20 26 18 17 15 15 15 18 17 15 16 15 17 20 19 20 23 13 11 21 30 28 28 23 36 41 45 47 49 49 50 49 49 50 51 51 52 52 53 53 53 53 54 55 55 56 57 58 58 59 60 60 60 61 61 61 61 62 62 63 64 64 66 66 65 65 65 64 64 65 64 63 63 61 62 63 63 62 63 63 63 64 64
20 18 18 16 31 18 16 15 13 13 16 15 16 15 13 14 16 13 14 11 9 12 26 24 26 28 38 40 43 47 47 49 50 51 50 49 50 50 51 51 52 51 51 51 52 52 53 53 54 55 56 56 57 58 59 59 60 60 60 60 61 61 62 63 63 64 65 66 65 64 64 64 65 65 64 64 64 64 63 63 63 62 62 63 63 63
20 20 18 17 19 26 17 15 13 12 12 14 12 17 9 11 11 10 9 16 14 14 19 31 31 39 41 43 47 46 49 51 51 50 50 50 49 50 50 51 51 50 51 50 50 51 51 52 53 53 54 54 55 55 56 57 57 57 58 58 58 59 61 62 63 63 63 64 65 64 64 64 65 65 65 65 64 64 64 64 63 63 63 62 62 62
16 16 16 15 15 20 18 16 14 15 13 12 15 11 17 15 10 11 8 10 10 16 24 32 25 35 34 41 47 48 51 51 50 50 50 50 50 50 49 49 49 49 49 49 49 50 50 51 52 52 53 53 53 54 55 55 55 55 56 57 57 58 59 60 61 62 62 63 63 64 64 63 63 65 64 64 64 64 65 64 63 62 64 63 64 62
14 16 18 16 17 17 16 17 16 13 12 13 14 14 16 16 26 10 19 20 18 20 20 32 31 39 41 46 48 51 49 48 49 49 49 49 49 48 47 47 47 48 48 48 48 49 49 50 50 51 51 52 52 53 53 53 54 54 55 55 56 57 58 59 60 61 61 62 62 63 63 63 63 63 64 65 65 64 65 64 63 63 64 63 63 64
14 15 17 17 16 16 16 17 16 14 16 17 12 14 15 21 20 20 21 25 28 24 28 31 37 42 45 48 47 50 48 47 49 48 47 47 47 46 46 46 46 47 47 47 47 47 48 48 49 49 50 50 51 51 52 52 52 53 53 54 54 55 56 56 56 58 59 61 61 61 61 63 63 63 63 63 63 63 63 63 63 63 63 62 63 63
14 18 20 15 14 15 17 16 15 15 20 14 14 14 19 19 22 22 13 17 19 13 25 34 35 37 36 35 46 48 46 47 46 46 45 46 45 45 45 45 45 46 45 46 46 46 47 48 48 48 49 49 50 50 50 51 51 52 52 52 53 53 53 54 55 56 57 59 61 61 61 62 63 62 62 62 63 63 62 62 62 63 63 63 63 63
23 17 14 15 15 16 17 14 13 14 14 13 12 16 13 15 13 19 20 13 14 23 28 32 34 36 35 37 43 45 46 46 46 45 44 44 44 44 44 44 44 44 45 45 45 45 45 46 47 47 47 47 48 49 49 50 50 51 51 51 51 52 52 53 54 55 56 57 59 61 61 62 62 62 62 62 62 62 61 61 62 62 62 63 63 63
32 25 17 19 15 16 17 14 17 14 14 15 16 13 17 22 23 12 16 20 18 24 28 30 33 31 38 38 42 45 46 47 44 44 43 43 43 43 43 44 44 44 44 44 44 44 44 44 45 45 46 46 47 47 48 49 49 49 50 50 51 52 52 53 53 54 55 56 57 59 61 61 61 61 62 62 62 61 61 61 62 62 63 63 63 62
23 33 17 17 18 15 13 18 16 14 16 14 16 16 18 25 20 18 22 15 19 26 26 29 27 30 38 41 42 45 47 46 44 43 43 43 43 43 43 43 43 43 43 43 43 43 43 43 43 44 44 44 45 46 47 48 48 48 49 49 49 49 50 51 52 53 53 54 56 57 59 62 62 62 62 63 62 62 61 61 61 62 62 62 62 62
25 25 22 22 14 20 19 31 29 14 15 15 16 15 17 16 13 11 13 25 28 26 27 27 27 34 40 46 47 48 48 45 44 43 42 42 42 42 43 42 42 42 42 42 43 43 42 42 43 43 43 44 44 44 45 46 47 47 48 48 48 48 48 49 50 51 52 54 55 56 58 60 61 61 61 62 62 62 61 61 61 62 62 62 62 62
33 29 29 27 28 29 31 34 35 29 33 27 17 16 18 26 20 15 11 19 26 28 30 31 25 28 45 48 48 48 46 44 43 42 42 42 42 42 42 42 42 42 42 42 42 42 42 42 42 42 42 43 43 44 44 45 45 46 47 47 47 48 48 49 50 50 51 53 55 56 58 60 61 61 61 61 61 61 61 62 62 62 62 62 62 62
51 31 29 27 26 26 26 26 36 37 29 22 30 36 22 20 23 22 20 25 24 29 25 24 20 32 44 45 44 45 45 44 43 42 41 41 41 41 41 41 41 41 41 41 41 41 41 41 41 41 41 41 42 42 43 43 44 45 45 46 47 48 49 49 49 50 51 52 54 55 57 59 61 61 60 60 61 61 61 61 61 61 62 62 62 61
21 22 28 25 24 25 27 26 26 30 37 37 35 37 35 30 26 31 30 32 26 30 28 16 15 29 42 44 43 42 42 42 41 42 41 40 41 41 40 40 40 41 40 40 40 40 40 40 40 40 40 40 41 41 42 42 43 44 45 46 47 47 48 48 49 49 50 51 52 54 55 56 59 60 60 60 61 61 61 61 61 61 61 62 62 61
27 30 28 21 20 19 19 20 20 23 33 37 36 35 36 27 31 31 20 22 19 28 28 19 23 39 42 43 42 41 41 40 40 40 40 40 40 40 40 40 40 40 39 39 40 40 40 40 40 40 41 40 40 40 41 41 42 43 44 46 47 47 47 48 48 49 50 50 51 51 53 55 56 58 59 60 60 60 61 61 61 61 61 61 61 61
36 36 34 30 25 23 23 28 37 35 35 34 33 36 36 36 32 32 29 19 16 28 28 30 34 38 39 40 40 41 40 39 39 39 39 39 39 39 39 39 39 39 39 39 39 39 39 40 40 40 40 40 40 40 40 41 42 42 43 45 45 46 47 47 48 48 49 49 50 50 51 52 54 56 58 60 60 61 60 60 61 61 61 61 61 61
36 33 35 35 36 36 36 36 36 36 36 35 35 36 36 36 35 32 21 18 33 28 23 36 39 38 39 40 40 39 39 39 38 38 38 38 39 39 38 38 39 38 38 38 38 38 38 39 39 40 40 40 40 40 40 41 41 42 43 43 44 45 47 47 48 48 48 49 49 49 50 51 52 53 55 58 60 60 60 60 60 60 60 61 61 61
36 32 35 36 35 36 35 35 36 35 35 36 36 36 36 36 36 35 35 34 34 24 18 37 39 39 39 39 39 39 38 38 37 38 38 38 38 38 38 37 37 37 37 37 37 38 38 38 39 39 39 39 40 40 40 40 40 42 42 42 43 44 45 47 48 48 48 48 48 49 49 50 51 52 53 55 58 59 60 60 60 60 60 60 61 61
36 34 35 35 35 35 35 35 36 35 35 35 35 35 36 38 37 37 36 38 38 38 38 39 38 37 37 37 37 38 38 38 37 38 38 37 37 37 37 37 37 37 37 37 37 37 37 38 38 38 39 39 39 39 39 39 39 40 41 42 42 43 45 47 47 47 47 47 47 48 48 49 50 50 52 54 55 57 59 59 60 60 60 60 60 60
35 33 36 35 34 34 35 35 35 36 35 34 35 35 36 36 36 37 38 38 38 38 39 37 35 33 36 38 38 38 38 37 37 36 36 36 36 36 36 36 37 36 36 37 36 36 36 37 37 38 38 38 38 39 39 40 39 40 41 41 41 42 44 45 46 47 47 47 47 47 48 48 49 49 50 52 53 56 58 59 60 60 60 60 61 61
38 34 37 35 32 33 35 35 35 35 35 34 34 36 35 36 36 36 35 36 37 36 36 35 34 32 36 38 37 37 36 36 35 36 36 36 36 36 36 36 37 37 37 37 36 36 36 36 37 37 38 38 38 39 39 39 39 39 40 40 41 42 43 45 46 46 46 46 46 47 47 47 48 48 49 50 51 53 56 58 59 59 60 60 60 60
40 37 33 32 31 32 35 35 35 34 32 29 32 34 36 36 36 37 37 38 38 38 35 33 33 35 36 36 35 35 35 34 35 35 35 36 36 36 36 36 36 36 36 37 36 36 36 36 37 38 38 38 38 39 39 39 39 39 40 40 41 41 42 43 45 46 46 45 45 46 46 47 47 47 48 48 49 51 53 56 58 59 59 59 59 58
38 36 34 37 30 32 34 35 35 28 22 26 35 37 38 36 36 35 34 36 37 38 36 35 35 35 35 35 34 34 34 34 35 36 37 36 36 36 36 36 36 36 36 36 36 36 37 37 37 38 39 39 39 40 40 39 39 40 40 40 40 40 41 41 42 43 44 45 45 45 46 46 46 46 47 47 48 48 48 49 51 53 56 58 58 57
35 35 33 38 32 31 34 34 25 21 23 34 38 37 37 37 36 35 35 35 36 36 36 35 35 35 35 35 35 34 35 36 37 36 36 36 36 36 36 35 36 36 36 37 37 37 38 38 38 39 39 38 39 40 39 38 39 39 38 38 39 39 40 40 40 42 43 44 45 45 45 46 46 45 46 46 46 46 45 46 47 47 48 50 51 51
32 32 32 32 32 31 30 26 21 21 33 36 37 38 38 37 37 36 35 36 36 36 36 34 34 34 34 34 35 35 35 35 35 35 36 36 36 36 36 36 36 37 38 38 38 38 38 38 39 39 39 40 39 38 37 38 39 37 37 37 38 38 39 39 39 40 41 42 44 44 45 45 45 45 44 44 44 44 44 44 45 45 46 46 47 47
37 35 33 31 32 29 29 28 28 32 33 34 35 36 37 36 36 35 32 33 37 36 35 34 34 34 34 34 34 34 34 33 32 33 36 36 36 37 37 37 37 38 38 39 39 39 39 39 39 40 40 40 40 39 39 39 39 38 37 36 36 37 38 39 38 38 40 40 42 44 45 45 45 44 44 44 43 43 44 43 43 44 45 44 44 44
37 32 33 31 29 29 27 26 27 27 27 30 35 39 40 40 39 38 35 33 37 36 36 34 33 33 33 33 33 33 35 32 30 31 34 36 37 37 37 38 38 39 39 40 40 39 39 40 40 40 40 40 40 40 39 39 39 38 37 37 37 37 37 38 38 38 39 40 40 42 44 44 44 44 44 43 43 43 43 44 44 44 44 44 44 44
33 35 34 30 28 27 26 26 25 24 26 33 36 38 39 40 41 40 35 32 37 36 36 35 34 33 33 33 33 34 35 32 30 32 34 36 37 37 37 38 39 39 39 39 39 38 38 39 39 38 38 39 39 39 40 39 40 39 38 38 37 37 37 37 37 38 38 39 39 40 43 44 44 44 44 43 43 44 43 43 43 44 44 44 44 43
33 30 30 29 27 24 24 24 24 26 27 33 36 38 38 40 40 38 28 30 37 36 35 35 34 33 33 34 34 35 34 31 30 33 35 36 37 38 39 39 39 39 39 39 39 39 38 38 37 37 38 38 39 40 39 39 38 39 39 38 38 37 37 37 38 37 38 39 40 40 42 43 44 44 44 44 44 44 44 44 44 44 44 44 43 43
29 28 28 28 26 26 27 26 27 28 32 36 36 37 38 40 37 28 25 31 38 36 35 35 34 34 34 35 36 33 35 34 34 36 37 37 38 38 38 39 39 39 39 39 39 40 37 37 37 36 37 37 38 39 39 38 39 39 39 39 38 38 38 38 38 38 38 39 39 39 40 41 43 44 45 44 44 44 44 44 44 44 44 44 43 43
29 29 27 27 26 26 26 25 25 28 33 37 37 38 39 37 28 27 36 39 37 36 35 35 35 36 36 35 35 35 36 37 36 36 36 37 37 37 37 37 37 37 37 38 39 39 38 37 37 37 37 37 37 38 38 38 38 38 39 39 39 39 38 37 37 38 38 38 38 39 39 40 42 43 44 45 45 44 44 44 44 44 45 45 44 43
29 27 27 26 26 25 24 25 24 23 31 38 38 37 38 32 32 38 39 38 37 36 36 36 36 36 35 34 35 35 35 35 35 36 37 37 37 37 37 37 37 37 38 38 38 38 38 37 37 36 37 37 37 37 38 39 38 38 39 39 40 40 39 38 37 37 38 38 39 39 39 40 40 41 42 43 44 44 43 43 43 43 43 44 43 43
33 28 27 27 30 24 22 23 24 30 35 38 39 33 37 39 39 39 38 37 37 37 36 36 36 36 36 34 34 34 35 35 36 36 36 36 37 37 37 37 37 37 36 36 37 38 38 37 37 36 37 38 38 38 38 39 37 38 38 39 40 40 40 40 38 37 37 38 38 38 38 38 39 40 41 42 42 43 43 44 44 44 44 44 44 43
34 31 32 28 31 25 24 28 34 35 38 39 40 39 39 39 39 38 38 37 36 36 37 36 36 36 35 35 34 34 34 35 36 37 36 37 38 38 37 38 38 39 39 39 38 39 38 37 39 37 37 37 38 38 38 38 39 38 39 40 40 39 40 40 40 39 37 36 37 37 37 38 38 39 39 40 41 41 41 41 42 42 43 43 43 43
34 34 34 33 32 36 37 37 38 38 39 39 39 38 38 38 38 38 38 37 37 37 37 36 35 35 35 35 34 34 34 34 34 35 35 35 35 37 38 37 37 38 38 38 38 39 38 38 38 38 38 36 38 38 39 38 38 39 40 40 40 39 39 40 40 40 38 36 36 36 36 37 37 37 37 39 40 40 40 41 41 41 41 42 42 42
35 35 34 33 33 31 29 37 37 37 38 38 37 38 38 38 38 38 37 36 36 36 36 36 35 35 35 35 34 33 33 33 34 34 35 35 35 35 35 36 36 37 37 37 39 40 39 40 38 38 37 37 38 37 36 37 37 38 39 39 39 39 39 39 40 40 40 38 36 36 36 36 36 36 36 36 38 38 39 39 39 39 40 41 41 42
31 35 32 32 31 30 31 36 37 38 38 37 37 36 36 36 36 36 36 36 36 35 35 35 35 35 35 34 34 33 34 34 34 35 35 35 35 35 35 36 36 36 38 39 39 39 38 39 38 38 37 36 38 38 37 36 36 36 38 38 39 39 38 39 39 39 40 40 38 35 35 36 34 35 35 35 35 37 38 38 38 37 37 37 39 41
34 35 30 32 32 34 36 37 37 37 36 37 37 37 36 35 35 35 35 35 34 34 35 35 35 35 34 34 35 35 35 35 36 35 35 34 35 35 35 36 37 38 39 38 39 39 38 38 37 39 38 37 39 39 37 37 37 37 38 38 38 39 38 39 40 39 40 40 39 38 37 36 36 36 36 36 35 35 36 37 38 38 37 37 36 38
32 30 32 32 31 30 31 33 36 32 30 34 36 36 36 35 35 34 34 34 34 34 35 35 35 37 37 37 37 37 36 36 37 38 36 36 36 37 37 37 38 38 37 38 38 38 37 37 38 38 37 37 38 38 37 38 37 37 36 37 37 37 37 38 38 38 38 39 39 39 38 38 36 36 36 36 36 36 35 33 34 35 36 37 35 35
31 32 32 31 31 30 33 36 36 35 35 36 36 36 36 36 35 34 33 34 34 35 35 35 35 35 36 36 37 37 37 38 38 38 38 37 38 39 39 38 36 36 36 37 34 34 34 35 36 36 34 34 36 35 36 37 36 36 37 38 38 36 35 36 36 36 37 37 38 39 40 39 38 38 37 37 37 36 34 36 35 34 34 35 35 35